• Em Portugal
  • Lista de países
  • Para 7 dias
  • Temperatura da água
  • Mapas de satélite
  • Mapa do tempo
  • Widgets de tempo
  • user-avatar
    Iniciar Sessão

    Previsão horária em Igls

    Hoje, 20 Agosto, Segunda-feira

    Tempo Temperatura Precipitação Vento Pressão Humidade
    00:00 +16°C° 0,3 mm 1 m/s 688 mmHg 94%
    01:00 +16°C° 0,3 mm 1 m/s 688 mmHg 95%
    02:00 +16°C° 0 mm 1 m/s 688 mmHg 95%
    03:00 +16°C° 0 mm 1 m/s 688 mmHg 95%
    04:00 +15°C° 0 mm 1 m/s 688 mmHg 95%
    05:00 +16°C° 0 mm 1 m/s 688 mmHg 94%
    06:00 +18°C° 0 mm 1 m/s 688 mmHg 92%
    07:00 +19°C° 0 mm 1 m/s 689 mmHg 91%
    08:00 +21°C° 0 mm 1 m/s 689 mmHg 83%
    09:00 +23°C° 0 mm 1 m/s 689 mmHg 75%
    10:00 +25°C° 0 mm 1 m/s 689 mmHg 66%
    11:00 +25°C° 0,4 mm 1 m/s 689 mmHg 65%
    12:00 +26°C° 0,4 mm 2 m/s 689 mmHg 63%
    13:00 +26°C° 0,4 mm 2 m/s 689 mmHg 61%
    14:00 +26°C° 0,9 mm 2 m/s 689 mmHg 65%
    15:00 +25°C° 0,9 mm 2 m/s 688 mmHg 69%
    16:00 +25°C° 0,9 mm 2 m/s 688 mmHg 73%
    17:00 +23°C° 0,9 mm 2 m/s 688 mmHg 79%
    18:00 +22°C° 0,9 mm 1 m/s 688 mmHg 86%
    19:00 +20°C° 0,9 mm 1 m/s 688 mmHg 92%
    20:00 +20°C° 0,2 mm 1 m/s 688 mmHg 93%
    21:00 +19°C° 0,2 mm 1 m/s 688 mmHg 95%
    22:00 +19°C° 0,2 mm 1 m/s 689 mmHg 96%
    23:00 +18°C° 0 mm 1 m/s 689 mmHg 97%

    Amanhã, 21 Agosto, Terça-feira

    Tempo Temperatura Precipitação Vento Pressão Humidade
    00:00 +18°C° 0 mm 1 m/s 688 mmHg 97%
    01:00 +18°C° 0 mm 1 m/s 688 mmHg 97%
    02:00 +16°C° 0 mm 1 m/s 688 mmHg 97%
    03:00 +16°C° 0 mm 1 m/s 688 mmHg 96%
    04:00 +16°C° 0 mm 1 m/s 688 mmHg 96%
    05:00 +16°C° 0 mm 1 m/s 688 mmHg 94%
    06:00 +16°C° 0 mm 0 m/s 688 mmHg 93%
    07:00 +17°C° 0 mm 0 m/s 688 mmHg 91%
    08:00 +21°C° 0 mm 1 m/s 689 mmHg 81%
    09:00 +23°C° 0 mm 1 m/s 689 mmHg 72%
    10:00 +25°C° 0 mm 1 m/s 689 mmHg 62%
    11:00 +26°C° 0,4 mm 1 m/s 689 mmHg 60%
    12:00 +26°C° 0,4 mm 1 m/s 689 mmHg 58%
    13:00 +27°C° 0,4 mm 2 m/s 689 mmHg 56%
    14:00 +27°C° 1,2 mm 1 m/s 688 mmHg 60%
    15:00 +26°C° 1,2 mm 1 m/s 688 mmHg 64%
    16:00 +26°C° 1,2 mm 1 m/s 688 mmHg 68%
    17:00 +24°C° 1,1 mm 1 m/s 688 mmHg 75%
    18:00 +23°C° 1,1 mm 1 m/s 687 mmHg 83%
    19:00 +21°C° 1,1 mm 1 m/s 687 mmHg 90%
    20:00 +20°C° 1 mm 1 m/s 688 mmHg 91%
    21:00 +20°C° 1 mm 1 m/s 688 mmHg 92%
    22:00 +19°C° 1 mm 1 m/s 688 mmHg 93%
    23:00 +19°C° 0,3 mm 1 m/s 688 mmHg 93%

    Depois de amanhã, 22 Agosto, Quarta-feira

    Tempo Temperatura Precipitação Vento Pressão Humidade
    00:00 +19°C° 0,3 mm 1 m/s 688 mmHg 93%
    01:00 +18°C° 0,3 mm 1 m/s 688 mmHg 94%
    02:00 +18°C° 0,3 mm 1 m/s 688 mmHg 93%
    03:00 +18°C° 0,3 mm 1 m/s 688 mmHg 93%
    04:00 +18°C° 0,3 mm 1 m/s 687 mmHg 93%
    05:00 +18°C° 0,2 mm 1 m/s 688 mmHg 92%
    06:00 +19°C° 0,2 mm 1 m/s 688 mmHg 90%
    07:00 +20°C° 0,2 mm 1 m/s 688 mmHg 88%
    08:00 +21°C° 0,1 mm 1 m/s 688 mmHg 81%
    09:00 +23°C° 0,1 mm 1 m/s 688 mmHg 73%
    10:00 +25°C° 0,1 mm 1 m/s 688 mmHg 66%
    11:00 +26°C° 0,8 mm 1 m/s 688 mmHg 65%
    12:00 +26°C° 0,8 mm 1 m/s 688 mmHg 64%
    13:00 +27°C° 0,8 mm 1 m/s 688 mmHg 63%
    14:00 +26°C° 1,7 mm 1 m/s 687 mmHg 68%
    15:00 +25°C° 1,7 mm 1 m/s 687 mmHg 72%
    16:00 +24°C° 1,7 mm 1 m/s 687 mmHg 77%
    17:00 +23°C° 1,2 mm 1 m/s 687 mmHg 81%
    18:00 +22°C° 1,2 mm 1 m/s 687 mmHg 86%
    19:00 +19°C° 1,2 mm 0 m/s 686 mmHg 90%
    20:00 +20°C° 0,5 mm 1 m/s 687 mmHg 91%
    21:00 +20°C° 0,5 mm 1 m/s 687 mmHg 91%
    22:00 +19°C° 0,5 mm 1 m/s 687 mmHg 92%
    23:00 +19°C° 0,2 mm 1 m/s 687 mmHg 92%

    23 Agosto, Quinta-feira

    Tempo Temperatura Precipitação Vento Pressão Humidade
    00:00 +19°C° 0,2 mm 1 m/s 687 mmHg 92%
    01:00 +18°C° 0,2 mm 1 m/s 686 mmHg 92%
    02:00 +18°C° 0,1 mm 1 m/s 686 mmHg 92%
    03:00 +18°C° 0,1 mm 1 m/s 686 mmHg 92%
    04:00 +18°C° 0,1 mm 1 m/s 686 mmHg 92%
    05:00 +18°C° 0,1 mm 1 m/s 686 mmHg 90%
    06:00 +19°C° 0,1 mm 1 m/s 686 mmHg 89%
    07:00 +19°C° 0,1 mm 1 m/s 686 mmHg 87%
    08:00 +21°C° 0,1 mm 1 m/s 686 mmHg 79%
    09:00 +21°C° 0,1 mm 0 m/s 687 mmHg 70%
    10:00 +23°C° 0,1 mm 0 m/s 687 mmHg 61%
    11:00 +24°C° 0,4 mm 0 m/s 686 mmHg 61%
    12:00 +26°C° 0,4 mm 1 m/s 686 mmHg 60%
    13:00 +27°C° 0,4 mm 1 m/s 686 mmHg 59%
    14:00 +26°C° 1,7 mm 1 m/s 685 mmHg 65%
    15:00 +25°C° 1,7 mm 1 m/s 685 mmHg 70%
    16:00 +24°C° 1,7 mm 1 m/s 685 mmHg 75%
    17:00 +23°C° 2,4 mm 1 m/s 684 mmHg 81%
    18:00 +21°C° 2,4 mm 1 m/s 684 mmHg 87%
    19:00 +20°C° 2,4 mm 1 m/s 684 mmHg 92%
    20:00 +19°C° 0,7 mm 1 m/s 684 mmHg 93%
    21:00 +19°C° 0,7 mm 1 m/s 684 mmHg 93%
    22:00 +18°C° 0,7 mm 1 m/s 684 mmHg 94%
    23:00 +18°C° 0 mm 1 m/s 684 mmHg 93%

    24 Agosto, Sexta-feira

    Tempo Temperatura Precipitação Vento Pressão Humidade
    00:00 +18°C° 0 mm 1 m/s 684 mmHg 92%
    01:00 +16°C° 0 mm 1 m/s 684 mmHg 92%
    02:00 +16°C° 0 mm 1 m/s 683 mmHg 92%
    03:00 +15°C° 0 mm 1 m/s 683 mmHg 92%
    04:00 +15°C° 0 mm 1 m/s 682 mmHg 92%
    05:00 +16°C° 0 mm 1 m/s 683 mmHg 90%
    06:00 +18°C° 0 mm 1 m/s 683 mmHg 87%
    07:00 +19°C° 0 mm 1 m/s 683 mmHg 85%
    08:00 +21°C° 0 mm 1 m/s 683 mmHg 75%
    09:00 +23°C° 0 mm 1 m/s 683 mmHg 65%
    10:00 +25°C° 0 mm 1 m/s 684 mmHg 55%
    11:00 +25°C° 0,5 mm 1 m/s 683 mmHg 60%
    12:00 +24°C° 0,5 mm 1 m/s 683 mmHg 65%
    13:00 +24°C° 0,5 mm 2 m/s 683 mmHg 70%
    14:00 +21°C° 2,9 mm 2 m/s 683 mmHg 77%
    15:00 +20°C° 2,9 mm 2 m/s 682 mmHg 84%
    16:00 +19°C° 2,9 mm 1 m/s 682 mmHg 91%
    17:00 +17°C° 4,2 mm 2 m/s 682 mmHg 93%
    18:00 +16°C° 4,2 mm 2 m/s 682 mmHg 95%
    19:00 +16°C° 4,2 mm 2 m/s 683 mmHg 97%
    20:00 +15°C° 2,3 mm 2 m/s 683 mmHg 97%
    21:00 +14°C° 2,3 mm 2 m/s 683 mmHg 98%
    22:00 +14°C° 2,3 mm 2 m/s 683 mmHg 98%
    23:00 +13°C° 1,5 mm 2 m/s 683 mmHg 98%

    25 Agosto, Sábado

    Tempo Temperatura Precipitação Vento Pressão Humidade
    00:00 +13°C° 1,5 mm 2 m/s 682 mmHg 98%
    01:00 +13°C° 1,5 mm 2 m/s 682 mmHg 98%
    02:00 +12°C° 2,5 mm 2 m/s 682 mmHg 98%
    03:00 +12°C° 2,5 mm 2 m/s 681 mmHg 98%
    04:00 +10°C° 2,5 mm 2 m/s 681 mmHg 98%
    05:00 +10°C° 3,4 mm 2 m/s 681 mmHg 98%
    06:00 +10°C° 3,4 mm 2 m/s 681 mmHg 98%
    07:00 +9°C° 3,4 mm 2 m/s 681 mmHg 98%
    08:00 +9°C° 2,2 mm 2 m/s 681 mmHg 97%
    09:00 +9°C° 2,2 mm 2 m/s 681 mmHg 97%
    10:00 +9°C° 2,2 mm 2 m/s 681 mmHg 97%
    11:00 +9°C° 1,2 mm 2 m/s 681 mmHg 96%
    12:00 +9°C° 1,2 mm 2 m/s 681 mmHg 96%
    13:00 +10°C° 1,2 mm 2 m/s 681 mmHg 95%
    14:00 +9°C° 2,4 mm 2 m/s 681 mmHg 96%
    15:00 +9°C° 2,4 mm 2 m/s 681 mmHg 97%
    16:00 +9°C° 2,4 mm 2 m/s 681 mmHg 97%
    17:00 +8°C° 2,1 mm 2 m/s 681 mmHg 97%
    18:00 +8°C° 2,1 mm 2 m/s 681 mmHg 97%
    19:00 +8°C° 2,1 mm 2 m/s 682 mmHg 97%
    20:00 +8°C° 1,3 mm 2 m/s 682 mmHg 97%
    21:00 +7°C° 1,3 mm 2 m/s 682 mmHg 97%
    22:00 +7°C° 1,3 mm 2 m/s 682 mmHg 97%
    23:00 +7°C° 0,3 mm 2 m/s 682 mmHg 97%
    Mostrar mais